Simultaneous Nadir Overpasses (SNOs) Predictions

Prediction of SNOs between AQUA and NPP Satellite Orbit:

Table of predicted SNOs for the next 14.0 days since TLE Epoch: 12/28/2018
Index Date (AQUA) Time (AQUA) Lat,Lon (AQUA) SZA (AQUA ) Date (NPP) Time (NPP) Lat,Lon (NPP) SZA (NPP ) Distance(km) Time Diff (sec)
1 12/29/2018 14:05:03 76.23,-151.48 119.67 12/29/2018 14:04:57 76.24,-151.46 119.67 0.49 6
2 12/29/2018 14:54:12 -77.08, 19.11 61.29 12/29/2018 14:55:24 -77.08, 19.09 61.34 0.55 72
3 01/01/2019 05:32:18 -75.67, 155.03 59.83 01/01/2019 05:31:20 -75.68, 155.10 59.80 2.25 58
4 01/01/2019 06:21:29 76.41, -35.04 119.37 01/01/2019 06:21:48 76.40, -35.10 119.37 1.93 19
5 01/03/2019 21:48:44 -75.84, -88.58 60.18 01/03/2019 21:48:11 -75.84, -88.58 60.15 0.17 33
6 01/03/2019 22:37:47 76.95, 82.75 118.58 01/03/2019 22:38:30 76.96, 82.82 118.52 1.93 43
7 01/06/2019 14:05:08 -76.06, 27.97 60.65 01/06/2019 14:05:00 -76.05, 27.89 60.62 2.34 8
8 01/06/2019 14:54:12 77.11,-160.77 118.17 01/06/2019 14:55:20 77.11,-160.77 118.11 0.21 68
9 01/09/2019 05:32:26 75.28, -26.07 119.94 01/09/2019 05:31:25 75.27, -26.14 120.01 2.06 61




NCC Satellite Simultaneous Nadir Overpasses (SNOs) Prediction Service
